Location: Observatorio Ernesto Juarez Davis
(29.2175°N, 110.7606°W)
Time: 19:38:52
(UTC-07:00)

Tiangong 2 - Visible Passes

Search period start: 25 May 2018 00:00
Search period end: 04 June 2018 00:00
Orbit: 382 x 385 km, 42.8° (Epoch: 25 May)

Date Brightness Start Highest point End Pass type
(mag) Time Alt. Az. Time Alt. Az. Time Alt. Az.
26 May 4.3 19:52:22 10° NNW 19:53:13 11° NNW 19:54:05 10° N visible
29 May 4.1 21:44:08 10° NNW 21:45:08 13° N 21:45:08 13° N visible
30 May 4.1 20:45:23 10° N 20:45:53 10° NNE 20:46:22 10° NNE visible
31 May 3.2 21:20:40 10° NNW 21:22:46 21° NNE 21:22:46 21° NNE visible
01 Jun 3.7 20:21:20 10° NNW 20:23:10 14° NNE 20:24:59 10° NE visible
01 Jun 4.2 21:57:04 10° NW 21:57:42 15° NW 21:57:42 15° NW visible
02 Jun 1.9 20:57:21 10° NW 21:00:20 39° NNE 21:00:29 39° NE visible
03 Jun 3.0 19:57:49 10° NNW 20:00:21 22° NNE 20:02:54 10° E visible
03 Jun 3.4 21:34:10 10° WNW 21:35:29 21° W 21:35:29 21° W visible
